This demonstration page uses our WeatherBlox Daily Observations layout. Learn more.

Hourly Observations for March 6, 2016

Temp ( °F °C ) Dew Point ( °F °C ) Humidity (%) Winds ( mph kmh ) Pressure ( in mb ) Visibility ( mi km ) Precip ( " mm )
12:15 am 00:15 Clear 51 10.5 24 -4.7 34 34 S 17 28 29.94 1014 10 16.0934 0 0
12:35 am 00:35 Clear 50 10.1 23 -4.8 35 35 S 17 28 29.91 1013 10 16.0934 0 0
12:55 am 00:55 Clear 50 10 23 -4.8 35 35 S 16 26 29.91 1013 10 16.0934 0 0
1:15 am 01:15 Clear 50 10 23 -4.9 35 35 S 15 24 29.91 1013 10 16.0934 0 0
1:35 am 01:35 Clear 49 9.6 23 -5 36 36 S 17 28 29.91 1013 10 16.0934 0 0
1:55 am 01:55 Clear 49 9.3 23 -4.9 37 37 S 16 26 29.91 1013 10 16.0934 0 0
2:15 am 02:15 Clear 48 9.1 24 -4.5 38 38 S 15 24 29.88 1012 10 16.0934 0 0
2:35 am 02:35 Clear 48 9.1 24 -4.5 38 38 S 15 24 29.88 1012 10 16.0934 0 0
2:55 am 02:55 Clear 48 9.1 24 -4.2 39 39 S 14 22 29.88 1012 10 16.0934 0 0
3:15 am 03:15 Clear 48 8.9 25 -4 40 40 S 13 20 29.85 1011 10 16.0934 0 0
3:35 am 03:35 Clear 47 8.5 25 -3.7 42 42 S 12 19 29.83 1010 10 16.0934 0 0
3:55 am 03:55 Clear 47 8.5 26 -3.5 43 43 S 10 17 29.83 1010 10 16.0934 0 0
4:15 am 04:15 Clear 47 8.3 27 -3 45 45 S 10 17 29.83 1010 10 16.0934 0 0
4:35 am 04:35 Clear 46 8 27 -2.6 47 47 S 8 13 29.83 1010 10 16.0934 0 0
4:55 am 04:55 Clear 45 7.4 28 -2.3 51 51 S 7 11 29.85 1011 10 16.0934 0 0
5:15 am 05:15 Clear 45 7 28 -2 53 53 S 7 11 29.83 1010 10 16.0934 0 0
5:35 am 05:35 Clear 44 6.9 29 -1.7 55 55 S 8 13 29.83 1010 10 16.0934 0 0
5:55 am 05:55 Clear 45 7.1 30 -1.3 56 56 S 9 15 29.83 1010 10 16.0934 0 0
6:15 am 06:15 Clear 44 6.9 30 -0.9 58 58 S 9 15 29.83 1010 10 16.0934 0 0
6:35 am 06:35 Clear 45 7.2 31 -0.5 58 58 S 9 15 29.8 1009 10 16.0934 0 0
6:55 am 06:55 Clear 45 7.2 32 -0.2 60 60 S 7 11 29.8 1009 10 16.0934 0 0
7:15 am 07:15 Sunny 45 7 32 0 61 61 S 8 13 29.83 1010 10 16.0934 0 0
7:35 am 07:35 Sunny 45 7 32 0.1 62 62 S 9 15 29.83 1010 10 16.0934 0 0
7:55 am 07:55 Sunny 45 7.2 33 0.5 63 63 S 8 13 29.8 1009 10 16.0934 0 0
8:15 am 08:15 Sunny 47 8.3 34 1.2 61 61 S 8 13 29.8 1009 10 16.0934 0 0
8:35 am 08:35 Sunny 50 10 36 2 58 58 S 9 15 29.8 1009 10 16.0934 0 0
8:55 am 08:55 Sunny 52 11.3 37 3 57 57 S 13 20 29.74 1007 10 16.0934 0 0
9:15 am 09:15 Sunny 54 12.2 38 3.6 56 56 S 15 24 29.74 1007 10 16.0934 0 0
9:35 am 09:35 Sunny 55 12.9 39 4 55 55 S 14 22 29.71 1006 10 16.0934 0 0
9:55 am 09:55 Sunny 57 13.8 40 4.5 54 54 S 16 26 29.68 1005 10 16.0934 0 0
10:15 am 10:15 Sunny 58 14.5 40 4.5 51 51 SSW 17 28 29.68 1005 10 16.0934 0 0
10:35 am 10:35 Sunny 60 15.5 40 4.6 48 48 S 16 26 29.68 1005 10 16.0934 0 0
10:55 am 10:55 Sunny 60 15.8 40 4.3 47 47 S 15 24 29.68 1005 10 16.0934 0 0
11:15 am 11:15 Sunny 62 16.5 40 4.2 44 44 SSW 16 26 29.62 1003 10 16.0934 0 0
11:35 am 11:35 Sunny 64 17.7 39 4.1 41 41 SSW 14 22 29.62 1003 10 16.0934 0 0
11:55 am 11:55 Sunny 64 18 39 3.8 39 39 S 15 24 29.62 1003 10 16.0934 0 0
12:15 pm 12:15 Sunny 65 18.6 38 3.1 36 36 S 16 26 29.62 1003 10 16.0934 0 0
12:35 pm 12:35 Sunny 67 19.5 38 3.3 34 34 S 13 20 29.59 1002 10 16.0934 0 0
12:55 pm 12:55 Sunny 67 19.6 38 3.2 34 34 S 14 22 29.59 1002 10 16.0934 0 0
1:15 pm 13:15 Sunny 69 20.3 38 3.6 33 33 S 17 28 29.56 1001 10 16.0934 0 0
1:35 pm 13:35 Sunny 69 20.3 37 2.5 31 31 SSW 12 19 29.53 1000 10 16.0934 0 0
1:55 pm 13:55 Sunny 69 20.8 37 3 31 31 SSW 14 22 29.53 1000 10 16.0934 0 0
2:15 pm 14:15 Sunny 70 21 38 3.2 31 31 S 12 19 29.5 999 10 16.0934 0 0
2:35 pm 14:35 Sunny 70 21.1 38 3.5 32 32 S 9 15 29.5 999 10 16.0934 0 0
2:55 pm 14:55 Sunny 71 21.5 37 2.7 29 29 S 14 22 29.5 999 10 16.0934 0 0
3:15 pm 15:15 Sunny 71 21.6 38 3.5 31 31 S 13 20 29.5 999 10 16.0934 0 0
3:35 pm 15:35 Sunny 71 21.9 39 4 31 31 SSW 12 19 29.47 998 10 16.0934 0 0
3:55 pm 15:55 Sunny 72 22 39 4.1 31 31 S 14 22 29.47 998 10 16.0934 0 0
4:15 pm 16:15 Sunny 71 21.7 40 4.2 32 32 S 15 24 29.47 998 10 16.0934 0 0
4:35 pm 16:35 Sunny 70 21.2 41 5.1 35 35 S 12 19 29.47 998 10 16.0934 0 0
4:55 pm 16:55 Sunny 69 20.8 41 5 36 36 S 14 22 29.47 998 10 16.0934 0 0
5:15 pm 17:15 Sunny 69 20.5 42 5.5 38 38 S 13 20 29.47 998 10 16.0934 0 0
5:35 pm 17:35 Sunny 68 20.2 42 5.5 38 38 S 14 22 29.47 998 10 16.0934 0 0
5:55 pm 17:55 Sunny 67 19.6 41 5.1 39 39 S 8 13 29.47 998 10 16.0934 0 0
6:15 pm 18:15 Sunny 65 18.5 41 5 41 41 S 6 9 29.5 999 10 16.0934 0 0
6:35 pm 18:35 Clear 62 16.5 41 4.8 46 46 S 6 9 29.5 999 10 16.0934 0 0
6:55 pm 18:55 Clear 58 14.6 40 4.6 51 51 SE 7 11 29.53 1000 10 16.0934 0 0
7:15 pm 19:15 Clear 59 15 41 5.2 52 52 S 5 7 29.53 1000 10 16.0934 0 0
7:35 pm 19:35 Clear 54 12.3 40 4.6 60 60 SE 3 6 29.53 1000 10 16.0934 0 0
7:55 pm 19:55 Clear 53 11.9 41 5 63 63 SSE 7 11 29.53 1000 10 16.0934 0 0
8:15 pm 20:15 Clear 55 12.8 42 5.7 62 62 SSE 7 11 29.53 1000 10 16.0934 0 0
8:35 pm 20:35 Clear 52 11.1 42 5.3 68 68 SE 7 11 29.56 1001 10 16.0934 0 0
8:55 pm 20:55 Clear 49 9.5 41 4.8 73 73 SE 10 17 29.56 1001 10 16.0934 0 0
9:15 pm 21:15 Clear 51 10.7 44 6.5 75 75 SSE 10 17 29.56 1001 10 16.0934 0 0
9:35 pm 21:35 Clear 53 11.4 45 7.1 75 75 SSE 8 13 29.56 1001 10 16.0934 0 0
9:55 pm 21:55 Clear 52 10.9 45 7 77 77 SSE 7 11 29.56 1001 10 16.0934 0 0
10:15 pm 22:15 Clear 51 10.3 45 7.1 81 81 SSE 7 11 29.53 1000 10 16.0934 0 0
10:35 pm 22:35 Clear 51 10.4 46 7.5 82 82 SSE 8 13 29.53 1000 10 16.0934 0 0
10:55 pm 22:55 Clear 49 9.7 45 7 83 83 SSE 8 13 29.53 1000 10 16.0934 0 0
11:15 pm 23:15 Clear 50 9.9 45 7.2 83 83 S 8 13 29.53 1000 10 16.0934 0 0
11:35 pm 23:35 Clear 51 10.5 46 7.9 84 84 S 9 15 29.53 1000 10 16.0934 0 0
11:55 pm 23:55 Clear 51 10.8 46 7.8 82 82 S 8 13 29.53 1000 10 16.0934 0 0

Powered by AerisWeather